TimeEET,TemperatureF,Dew PointF,Humidity,Sea Level PressureIn,VisibilityMPH,Wind Direction,Wind SpeedMPH,Gust SpeedMPH,PrecipitationIn,Events,Conditions,WindDirDegrees,DateUTC
1:50 AM,23.0,23.0,100,30.12,1.6,Calm,Calm,-,N/A,Snow,Light Snow,0,2012-12-18 23:50:00
2:00 AM,23,22,92,,2,Calm,Calm,,,Snow,Light Snow,,2012-12-19 00:00:00
2:50 AM,23.0,23.0,100,30.12,1.6,Calm,Calm,-,N/A,Snow,Light Snow,0,2012-12-19 00:50:00
3:50 AM,23.0,23.0,100,30.12,1.6,Variable,1.2,-,N/A,Snow,Light Snow,0,2012-12-19 01:50:00
4:50 AM,24.8,24.8,100,30.12,2.5,Variable,2.3,-,N/A,Snow,Light Snow,0,2012-12-19 02:50:00
5:50 AM,23.0,23.0,100,30.12,2.5,Calm,Calm,-,N/A,,Mostly Cloudy,0,2012-12-19 03:50:00
6:50 AM,24.8,24.8,100,30.12,1.2,ENE,3.5,-,N/A,Snow,Light Snow,60,2012-12-19 04:50:00
7:50 AM,24.8,24.8,100,30.12,0.6,Calm,Calm,-,N/A,Snow,Light Snow,0,2012-12-19 05:50:00
8:00 AM,26,25,94,,1,Calm,Calm,,,Snow,Light Snow,,2012-12-19 06:00:00
8:50 AM,26.6,26.6,100,30.15,0.9,Calm,Calm,-,N/A,Snow,Light Snow,0,2012-12-19 06:50:00
9:50 AM,26.6,26.6,100,30.15,0.9,Calm,Calm,-,N/A,Snow,Light Snow,0,2012-12-19 07:50:00
10:50 AM,28.4,28.4,100,30.12,0.7,Calm,Calm,-,N/A,Snow,Light Snow,0,2012-12-19 08:50:00
11:50 AM,28.4,28.4,100,30.09,1.2,SW,1.2,-,N/A,Snow,Light Snow,230,2012-12-19 09:50:00
12:50 PM,28.4,28.4,100,30.09,1.2,Calm,Calm,-,N/A,Snow,Light Snow,0,2012-12-19 10:50:00
1:50 PM,28.4,28.4,100,30.09,0.9,SW,3.5,-,N/A,Snow,Light Snow,230,2012-12-19 11:50:00
2:00 PM,28,27,96,,1,SW,3.5,,,Snow,Light Snow,230,2012-12-19 12:00:00
2:50 PM,26.6,26.6,100,30.09,1.2,WSW,5.8,-,N/A,Snow,Light Snow,250,2012-12-19 12:50:00
3:50 PM,26.6,26.6,100,30.09,1.2,WSW,3.5,-,N/A,Snow,Light Snow,250,2012-12-19 13:50:00
4:50 PM,26.6,26.6,100,30.09,1.2,WNW,4.6,-,N/A,Snow,Light Snow,290,2012-12-19 14:50:00
5:50 PM,26.6,26.6,100,30.09,1.2,West,2.3,-,N/A,Snow,Light Snow,280,2012-12-19 15:50:00
6:50 PM,26.6,26.6,100,30.09,1.2,WSW,2.3,-,N/A,Snow,Light Snow,240,2012-12-19 16:50:00
7:50 PM,26.6,26.6,100,30.09,1.2,WSW,4.6,-,N/A,Snow,Light Snow,250,2012-12-19 17:50:00
8:00 PM,27,27,98,,1,WSW,4.6,,,Snow,Light Snow,250,2012-12-19 18:00:00
8:50 PM,26.6,26.6,100,30.09,1.2,Calm,Calm,-,N/A,Snow,Light Snow,0,2012-12-19 18:50:00
9:50 PM,26.6,26.6,100,30.09,1.2,Calm,Calm,-,N/A,Snow,Light Snow,0,2012-12-19 19:50:00
10:50 PM,24.8,24.8,100,30.06,1.2,WSW,3.5,-,N/A,Snow,Light Snow,240,2012-12-19 20:50:00
11:50 PM,24.8,24.8,100,30.06,1.2,WSW,2.3,-,N/A,Snow,Light Snow,250,2012-12-19 21:50:00